Flag for United Kingdom Weather past 2 weeks in Worcester, England, United Kingdom

41 °F

Partly cloudy.

Feels Like: 34 °F
Forecast: N/A
Wind: 13 mph from Northwest

Location: Birmingham / Airport

Current Time: Nov 27, 2015 at 11:08:46 PM

Latest Report: Nov 27, 2015 at 10:20 PM

Visibility: N/A

Pressure: 29.80 "Hg

Humidity: 87%

Dew point: 37 °F

Location of WorcesterLocation

Historic Weather in Worcester — Graph


Worcester temperature yesterday

Maximum temperature yesterday: 50 °F (at 12:50 PM)
Minimum temperature yesterday: 46 °F (at 2:50 AM)
Average temperature yesterday: 48 °F

Past Weeks' High & Low Weather Summary

High59 °F (Nov 14, 9:50 PM)100% (Nov 14, 12:50 PM)30.24 "Hg (Nov 14, 12:50 PM)
Low28 °F (Nov 23, 7:20 AM)52% (Nov 21, 1:20 PM)29.39 "Hg (Nov 17, 1:50 PM)
Average47 °F83%29.86 "Hg
* Reported Nov 12 9:20 PM — Nov 27 9:50 PM, Worcester, Weather by CustomWeather, © 2015

Note: Actual official high and low records may vary slightly from our data, if they occured in-between our weather recording intervals... More about our weather records


Worcester weather history for previous 24 hours

Time TempWeatherWind HumidityBarometerVisibility
9:50 PM
Fri, Nov 27
41 °FPassing clouds.15 mph87%29.77 "HgN/A
8:50 PM41 °FPassing clouds.17 mph87%29.74 "HgN/A
8:20 PM43 °FLight rain. Partly cloudy.21 mph87%29.71 "HgN/A
7:50 PM43 °FLight rain. Partly cloudy.25 mph87%29.68 "HgN/A
7:20 PM45 °FLight rain. Mostly cloudy.10 mph93%29.65 "HgN/A
6:50 PM45 °FRain. Passing clouds.10 mph93%29.65 "Hg2 mi
6:20 PM46 °FLight rain. Passing clouds.13 mph87%29.62 "HgN/A
5:20 PM50 °FLight rain. Partly cloudy.15 mph88%29.59 "HgN/A
4:50 PM52 °FSprinkles. Passing clouds.14 mph88%29.56 "HgN/A
4:20 PM52 °FPassing clouds.13 mph88%29.56 "HgN/A
3:50 PM52 °FPartly sunny.13 mph88%29.59 "HgN/A
3:20 PM52 °FSprinkles. Broken clouds.14 mph88%29.59 "HgN/A
2:50 PM52 °FPartly sunny.10 mph88%29.62 "HgN/A
2:20 PM52 °FBroken clouds.12 mph88%29.62 "HgN/A
1:50 PM52 °FBroken clouds.10 mph88%29.65 "HgN/A
1:20 PM52 °FBroken clouds.9 mph88%29.68 "HgN/A
12:50 PM52 °FPartly sunny.9 mph88%29.68 "HgN/A
12:20 PM52 °FBroken clouds.10 mph88%29.71 "HgN/A
11:50 AM52 °FLight rain. Broken clouds.10 mph88%29.74 "HgN/A
11:20 AM52 °FPartly sunny.10 mph88%29.74 "HgN/A
10:50 AM54 °FPartly sunny.10 mph82%29.77 "HgN/A
10:20 AM54 °FScattered clouds.10 mph88%29.77 "HgN/A
9:50 AM54 °FBroken clouds.9 mph88%29.77 "HgN/A
9:20 AM54 °FBroken clouds.10 mph94%29.80 "HgN/A
8:50 AM54 °FMostly cloudy.10 mph94%29.80 "HgN/A
8:20 AM54 °FPartly sunny.9 mph94%29.83 "Hg6 mi
7:50 AM52 °FPartly sunny.9 mph100%29.83 "Hg6 mi
6:50 AM52 °FMostly cloudy.7 mph100%29.86 "Hg5 mi
6:20 AM52 °FLow clouds.7 mph100%29.86 "Hg4 mi
5:50 AM52 °FFog.6 mph100%29.89 "Hg2 mi
5:20 AM52 °FFog.7 mph94%29.89 "Hg2 mi
4:50 AM50 °FFog.8 mph100%29.92 "Hg3 mi
3:50 AM50 °FFog.6 mph100%29.95 "Hg2 mi
3:20 AM52 °FMostly cloudy.7 mph94%29.95 "Hg6 mi
2:50 AM50 °FFog.6 mph100%29.98 "Hg3 mi
2:20 AM50 °FFog.5 mph100%29.98 "Hg3 mi
1:50 AM50 °FLow clouds.5 mph94%30.01 "Hg5 mi
1:20 AM50 °FLow clouds.5 mph94%30.01 "HgN/A
12:50 AM50 °FLow clouds.6 mph94%30.04 "HgN/A
12:20 AM50 °FLow clouds.7 mph100%30.04 "HgN/A
11:50 PM
Thu, Nov 26
50 °FOvercast.7 mph100%30.04 "HgN/A
11:20 PM50 °FOvercast.7 mph94%30.04 "HgN/A
Weather by CustomWeather, © 2015

See weather overviewHow to use our weather pages